EW9744 Weather Reports


Display with metric or nautical units.
time (UTC)temp
F
wind
direction
speed
MPH
gust
MPH
rain 1hr
in
rain 24hr
in
rain mn
in
humidity
%
barometer
mb
20200329141533 40 211 2.0 0.0 0.04 0.07 0.00 95 1.1
20200329140027 40 252 2.0 0.0 0.04 0.06 0.00 96 1.1
20200329134525 40 323 0.0 0.0 0.04 0.05 0.00 96 1.1
20200329133032 40 270 0.0 0.0 0.03 0.04 0.00 95 1.1
20200329131527 40 230 2.0 0.0 0.02 0.03 0.00 95 1.1
20200329130029 40 157 0.0 0.0 0.02 0.02 0.00 95 1.1
20200329124522 40 232 1.0 0.0 0.01 0.01 0.00 94 1.1
20200329123028 40 320 3.0 0.0 0.01 0.01 0.00 94 1.1
20200329121528 40 314 3.0 0.0 0.01 0.01 0.00 94 1.1
20200329120027 40 286 2.0 0.0 0.00 0.00 0.00 94 1.1
20200329114528 39 280 3.0 0.0 0.00 0.00 0.00 93 1.1
20200329113025 40 270 2.0 0.0 0.00 0.00 0.00 93 1.1
20200329110026 39 293 2.0 0.0 0.00 0.00 0.00 92 1.1
20200329104529 40 315 4.0 0.0 0.00 0.00 0.00 92 1.1
20200329103029 40 18 1.0 0.0 0.00 0.00 0.00 92 1.1
20200329101534 40 330 1.0 0.0 0.00 0.00 0.00 93 1.1
20200329100027 39 281 2.0 0.0 0.00 0.00 0.00 93 1.1
20200329094535 39 264 3.0 0.0 0.00 0.00 0.00 92 1.1
20200329093027 40 257 2.0 0.0 0.00 0.00 0.00 92 1.1
20200329090027 40 286 3.0 0.0 0.00 0.00 0.00 91 1.1
20200329084525 41 271 2.0 0.0 0.00 0.00 0.00 91 1.1
20200329083027 41 323 4.0 0.0 0.00 0.00 0.00 92 1.1
20200329081538 41 342 4.0 0.0 0.00 0.00 0.00 92 1.1
20200329080025 41 327 2.0 0.0 0.00 0.00 0.00 92 1.1
20200329074524 41 315 0.0 0.0 0.00 0.00 0.00 92 1.1
20200329073027 41 315 1.0 0.0 0.00 0.00 0.00 91 1.1
20200329071530 41 315 1.0 0.0 0.00 0.00 0.00 89 1.1
20200329070030 42 284 3.0 0.0 0.00 0.00 0.00 89 1.1
20200329064533 41 258 4.0 0.0 0.00 0.00 0.00 89 1.1
20200329061526 42 251 2.0 0.0 0.00 0.00 0.00 88 1.1
20200329060026 42 260 3.0 0.0 0.00 0.00 0.00 87 1.1
20200329054526 43 267 4.0 0.0 0.00 0.00 0.00 87 1.1
20200329053026 43 254 4.0 0.0 0.00 0.00 0.00 86 1.1
20200329051525 43 253 3.0 0.0 0.00 0.00 0.00 86 1.1
20200329050026 43 265 3.0 0.0 0.00 0.00 0.00 86 1.1
20200329044525 43 256 3.0 0.0 0.00 0.00 0.00 85 1.1
20200329043029 43 257 4.0 0.0 0.00 0.00 0.00 85 1.1
20200329041528 43 255 5.0 0.0 0.00 0.00 0.00 84 1.1
20200329040025 43 258 3.0 0.0 0.00 0.00 0.00 84 1.1
20200329034535 44 263 3.0 0.0 0.00 0.00 0.00 84 1.1
20200329033029 44 274 4.0 0.0 0.00 0.00 0.00 84 1.1
20200329031527 44 269 3.0 0.0 0.00 0.00 0.00 84 1.1
20200329030024 44 266 3.0 0.0 0.00 0.00 0.00 81 1.1
20200329023027 46 146 2.0 0.0 0.00 0.00 0.00 78 1.1
20200329021524 46 121 0.0 0.0 0.00 0.00 0.00 75 1.1
20200329020027 47 137 2.0 0.0 0.00 0.00 0.00 73 1.1
20200329014526 48 151 2.0 0.0 0.00 0.00 0.00 72 1.1
20200329013029 48 175 2.0 0.0 0.00 0.00 0.00 69 1.1
20200329011529 49 218 3.0 0.0 0.00 0.00 0.00 68 1.1
20200329010029 48 234 5.0 0.0 0.00 0.00 0.00 68 1.1
20200329004530 49 217 4.0 0.0 0.00 0.00 0.00 69 1.1
20200329003029 49 161 2.0 0.0 0.00 0.00 0.00 68 1.1
20200329001528 48 212 3.0 0.0 0.00 0.00 0.00 72 1.1
20200329000110 47 302 4.0 0.0 0.00 0.00 0.00 79 1.1
20200328234526 48 335 6.0 0.0 0.00 0.00 0.00 75 1.1
20200328233035 49 308 5.0 0.0 0.00 0.00 0.00 71 1.1
20200328231528 50 265 5.0 0.0 0.00 0.00 0.00 65 1.1
20200328230057 50 215 3.0 0.0 0.00 0.00 0.00 64 1.1
20200328224532 50 240 6.0 0.0 0.00 0.00 0.00 63 1.1
20200328223023 50 243 6.0 0.0 0.00 0.00 0.00 63 1.1
20200328221529 51 218 5.0 0.0 0.00 0.00 0.00 64 1.1
20200328220027 50 174 5.0 0.0 0.00 0.00 0.00 68 1.1
20200328214524 51 41 5.0 0.0 0.00 0.00 0.00 65 1.1
20200328213028 51 157 5.0 0.0 0.00 0.00 0.00 62 1.1
20200328211535 51 195 7.0 0.0 0.00 0.00 0.00 62 1.1
20200328210025 51 208 4.0 0.0 0.00 0.00 0.00 62 1.1
20200328204534 51 195 8.0 0.0 0.00 0.00 0.00 62 1.1
20200328203028 51 199 8.0 0.0 0.00 0.00 0.00 62 1.1
20200328201527 51 179 7.0 0.0 0.00 0.00 0.00 64 1.1
20200328200035 50 187 6.0 0.0 0.00 0.00 0.00 69 1.1
20200328194527 48 104 4.0 0.0 0.00 0.00 0.00 77 1.1
20200328193027 48 43 4.0 0.0 0.00 0.00 0.00 76 1.1
20200328191526 48 95 3.0 0.0 0.00 0.00 0.00 75 1.1
20200328190031 48 89 3.0 0.0 0.00 0.00 0.00 77 1.1
20200328184526 47 40 3.0 0.0 0.00 0.00 0.00 80 1.1
20200328183029 46 93 2.0 0.0 0.00 0.00 0.00 81 1.1
20200328181522 45 125 1.0 0.0 0.00 0.00 0.00 83 1.1
20200328180029 44 113 2.0 0.0 0.00 0.00 0.00 84 1.1
20200328174527 44 80 3.0 0.0 0.00 0.00 0.00 85 1.1
20200328173026 43 32 3.0 0.0 0.00 0.00 0.00 86 1.1
20200328171526 43 44 5.0 0.0 0.00 0.00 0.00 88 1.1
20200328170027 43 43 4.0 0.0 0.00 0.00 0.00 90 1.1
20200328164526 43 53 3.0 0.0 0.00 0.00 0.00 91 1.1
20200328161523 42 92 0.0 0.0 0.00 0.00 0.00 92 1.1
20200328160031 41 112 0.0 0.0 0.00 0.00 0.00 93 1.1
20200328154527 41 112 0.0 0.0 0.00 0.00 0.00 94 1.1
20200328153026 40 292 0.0 0.0 0.00 0.00 0.00 94 1.1
20200328151530 40 292 0.0 0.0 0.00 0.00 0.00 95 1.1
20200328150026 39 292 0.0 0.0 0.00 0.00 0.00 95 1.1
20200328144531 39 292 0.0 0.0 0.00 0.00 0.00 95 1.1
20200328143028 38 292 0.0 0.0 0.00 0.00 0.00 95 1.1